Eugene, OR

12:46 AM PST on November 18, 2019 (GMT -0800)
Mahlon Sweet

Weather History for KEUG - September, 2019

Change the Weather History Date:

Monday, September 16, 2019

  Actual Average Record
Temperature  
Mean Temperature 59 °F 62 °F  
Max Temperature 68 °F 77 °F 91 °F (1994)
Min Temperature 50 °F 47 °F 35 °F (1936)
Degree Days  
Heating Degree Days 6 4  
Month to date heating degree days 20 43  
Since 1 July heating degree days 32 110  
Cooling Degree Days 0 1  
Month to date cooling degree days 43 23  
Year to date cooling degree days 351 231  
Growing Degree Days 10 (Base 50)    
Moisture  
Dew Point 52 °F    
Average Humidity 74    
Maximum Humidity 93    
Minimum Humidity 55    
Precipitation  
Precipitation 0.03 in 0.05 in 1.01 in (1946)
Month to date precipitation 2.43 0.59  
Year to date precipitation 25.64 26.60  
Sea Level Pressure  
Sea Level Pressure 29.88 in    
Wind  
Wind Speed 7 mph (South)    
Max Wind Speed 16 mph    
Max Gust Speed 24 mph    
Visibility 10 miles    
Events Rain    
T = Trace of Precipitation, MM = Missing Value Source: NWS Daily Summary

Daily Weather History Graph

Daily Weather History Graph

Search for Another Location

Airport or City:

Astronomy

Sep. 16, 2019 Rise Set
Actual Time 6:53 AM PDT 7:21 PM PDT
Civil Twilight 6:23 AM PDT 7:50 PM PDT
Nautical Twilight 5:49 AM PDT 8:24 PM PDT
Astronomical Twilight 5:14 AM PDT 9:00 PM PDT
Moon 8:54 PM PDT (9/16) 9:08 AM PDT (9/16)
Length of Visible Light 13h 26m
Length of Day
12h 28m
Waning Gibbous, 94% of the Moon is Illuminated
Sep 16
Waning Gibbous
Sep 21
Last Quarter
Sep 28
New
Oct 5
First Quarter
Oct 13
Full

Hourly Weather History & Observations

Time (PDT) Temp. Dew Point Humidity Pressure Visibility Wind Dir Wind Speed Gust Speed Precip Events Conditions
12:54 AM 57.0 °F 54.0 °F 89% 29.83 in 10.0 mi SSE 4.6 mph - N/A   Overcast
1:17 AM 57.0 °F 55.0 °F 93% 29.83 in 10.0 mi South 4.6 mph - 0.00 in   Overcast
1:27 AM 55.9 °F 54.0 °F 93% 29.82 in 10.0 mi South 5.8 mph - 0.00 in Rain Light Rain
1:54 AM 55.9 °F 53.1 °F 90% 29.82 in 10.0 mi SSE 5.8 mph - 0.00 in   Overcast
2:54 AM 54.0 °F 52.0 °F 93% 29.81 in 10.0 mi South 6.9 mph - N/A   Partly Cloudy
3:54 AM 51.1 °F 48.9 °F 92% 29.82 in 10.0 mi South 5.8 mph - N/A   Clear
4:54 AM 53.1 °F 50.0 °F 89% 29.82 in 10.0 mi SSE 9.2 mph - N/A   Clear
5:54 AM 53.1 °F 51.1 °F 93% 29.84 in 10.0 mi SSE 4.6 mph - N/A   Overcast
6:08 AM 54.0 °F 52.0 °F 93% 29.84 in 10.0 mi South 4.6 mph - N/A   Overcast
6:54 AM 54.0 °F 52.0 °F 93% 29.84 in 10.0 mi SE 6.9 mph - 0.00 in Rain Light Rain
7:54 AM 55.9 °F 53.1 °F 90% 29.86 in 10.0 mi South 3.5 mph - 0.01 in   Mostly Cloudy
8:27 AM 55.9 °F 53.1 °F 90% 29.86 in 10.0 mi SSE 5.8 mph - N/A   Mostly Cloudy
8:54 AM 57.0 °F 52.0 °F 83% 29.87 in 10.0 mi South 5.8 mph - N/A   Mostly Cloudy
9:54 AM 59.0 °F 52.0 °F 78% 29.88 in 10.0 mi South 4.6 mph - N/A   Mostly Cloudy
10:54 AM 61.0 °F 54.0 °F 78% 29.88 in 10.0 mi South 6.9 mph - N/A   Mostly Cloudy
11:42 AM 62.1 °F 53.1 °F 72% 29.88 in 10.0 mi SW 5.8 mph - N/A   Mostly Cloudy
11:54 AM 64.0 °F 54.0 °F 70% 29.87 in 10.0 mi SW 6.9 mph - N/A   Mostly Cloudy
12:54 PM 60.1 °F 54.0 °F 80% 29.88 in 10.0 mi West 5.8 mph - 0.00 in Rain Light Rain
1:54 PM 64.0 °F 52.0 °F 65% 29.89 in 10.0 mi Variable 3.5 mph - 0.02 in   Mostly Cloudy
2:54 PM 66.9 °F 50.0 °F 54% 29.89 in 10.0 mi West 11.5 mph - N/A   Mostly Cloudy
3:54 PM 68.0 °F 52.0 °F 56% 29.91 in 10.0 mi SW 9.2 mph - N/A   Mostly Cloudy
4:54 PM 68.0 °F 51.1 °F 55% 29.90 in 10.0 mi WSW 11.5 mph - N/A   Mostly Cloudy
5:54 PM 66.0 °F 51.1 °F 59% 29.92 in 10.0 mi West 12.7 mph - N/A   Scattered Clouds
6:54 PM 63.0 °F 52.0 °F 67% 29.94 in 10.0 mi West 5.8 mph - N/A   Mostly Cloudy
7:54 PM 61.0 °F 53.1 °F 75% 29.95 in 10.0 mi Calm Calm - N/A   Mostly Cloudy
8:54 PM 57.9 °F 51.1 °F 78% 29.96 in 10.0 mi South 6.9 mph - N/A   Scattered Clouds
9:54 PM 57.0 °F 52.0 °F 83% 29.96 in 10.0 mi SE 9.2 mph - N/A   Scattered Clouds
10:54 PM 57.0 °F 53.1 °F 87% 29.96 in 10.0 mi SSE 6.9 mph - N/A   Overcast
11:23 PM 55.9 °F 52.0 °F 87% 29.96 in 10.0 mi SSE 8.1 mph - N/A   Scattered Clouds
11:54 PM 55.9 °F 52.0 °F 87% 29.95 in 10.0 mi SE 10.4 mph - N/A   Mostly Cloudy